DW8782 Weather Reports


time (UTC)temp
C
wind
direction
speed
KPH
gust
KPH
rain 1hr
cm
rain 24hr
cm
rain mn
cm
humidity
%
barometer
mb
20260906231552 21 216 14.5 20.9 0.00 0.00 0.00 65 1012.2
20260906230150 20 185 9.7 19.3 0.00 0.00 0.00 65 1012.2
20260906224548 21 236 11.3 17.7 0.00 0.00 0.00 66 1012.4
20260906223047 20 191 11.3 22.5 0.00 0.00 0.00 67 1012.6
20260906221543 21 265 11.3 20.9 0.00 0.00 0.00 64 1012.7
20260906220039 21 258 8.0 17.7 0.00 0.00 0.00 64 1012.8
20260906214538 21 234 11.3 20.9 0.00 0.00 0.00 66 1012.9
20260906213034 20 217 11.3 20.9 0.00 0.00 0.00 66 1013.1
20260906211530 20 298 14.5 25.7 0.00 0.00 0.00 63 1013.2
20260906210028 20 239 9.7 24.1 0.00 0.00 0.00 65 1013.3
20260906204526 20 196 11.3 19.3 0.00 0.00 0.00 65 1013.4
20260906203024 20 200 11.3 22.5 0.00 0.00 0.00 65 1013.5
20260906201521 20 198 8.0 20.9 0.00 0.00 0.00 64 1013.7
20260906200017 20 229 11.3 20.9 0.00 0.00 0.00 63 1013.9
20260906194520 21 234 9.7 14.5 0.00 0.00 0.00 63 1014.0
20260906193011 22 222 6.4 11.3 0.00 0.00 0.00 59 1014.0
20260906191506 23 239 0.0 3.2 0.00 0.00 0.00 57 1014.2
20260906190002 23 68 0.0 3.2 0.00 0.00 0.00 56 1014.4
20260906184625 22 57 0.0 3.2 0.00 0.00 0.00 59 1014.6
20260906183053 22 97 0.0 3.2 0.00 0.00 0.00 64 1014.7
20260906181551 21 97 0.0 6.4 0.00 0.00 0.00 63 1014.9
20260906180043 21 119 0.0 4.8 0.00 0.00 0.00 62 1015.2
20260906174544 21 85 0.0 3.2 0.00 0.00 0.00 63 1015.4
20260906173038 21 126 0.0 1.6 0.00 0.00 0.00 64 1015.6
20260906171536 20 172 0.0 3.2 0.00 0.00 0.00 68 1016.0
20260906170027 18 223 0.0 3.2 0.00 0.00 0.00 70 1016.3
20260906164533 18 98 0.0 3.2 0.00 0.00 0.00 72 1016.5
20260906163019 17 87 0.0 3.2 0.00 0.00 0.00 75 1016.5
20260906161512 16 83 0.0 3.2 0.00 0.00 0.00 76 1016.7
20260906160009 16 75 0.0 3.2 0.00 0.00 0.00 80 1016.8
20260906154505 15 153 0.0 1.6 0.00 0.00 0.00 82 1016.9
20260906153100 14 82 0.0 1.6 0.00 0.00 0.00 84 1017.0
20260906151554 12 70 0.0 3.2 0.00 0.00 0.00 92 1017.2
20260906150054 10 161 0.0 0.0 0.00 0.00 0.00 97 1017.3
20260906144553 9 163 0.0 0.0 0.00 0.00 0.00 96 1017.2
20260906143051 9 163 0.0 0.0 0.00 0.00 0.00 96 1017.2
20260906141550 9 163 0.0 0.0 0.00 0.00 0.00 96 1017.1
20260906140051 9 219 0.0 1.6 0.00 0.00 0.00 96 1016.9
20260906134547 9 220 0.0 1.6 0.00 0.00 0.00 96 1017.0
20260906133052 9 220 0.0 1.6 0.00 0.00 0.00 95 1016.9
20260906131545 9 235 0.0 1.6 0.00 0.00 0.00 96 1016.8
20260906130047 9 235 0.0 0.0 0.00 0.00 0.00 95 1016.8
20260906124543 9 235 0.0 1.6 0.00 0.00 0.00 95 1016.6
20260906123040 9 235 0.0 1.6 0.00 0.00 0.00 95 1016.7
20260906121536 9 235 0.0 0.0 0.00 0.00 0.00 95 1016.7
20260906120033 10 235 0.0 0.0 0.00 0.00 0.00 95 1016.8
20260906114532 10 235 0.0 1.6 0.00 0.00 0.00 95 1016.9
20260906113030 10 235 0.0 0.0 0.00 0.00 0.00 95 1016.8
20260906111527 10 235 0.0 0.0 0.00 0.00 0.00 94 1016.9
20260906110025 10 235 0.0 0.0 0.00 0.00 0.00 94 1017.0
20260906104522 10 235 0.0 1.6 0.00 0.03 0.00 94 1017.1
20260906103039 10 235 0.0 1.6 0.00 0.03 0.00 93 1017.2
20260906101516 10 235 0.0 1.6 0.00 0.03 0.00 93 1017.2
20260906100024 11 234 0.0 0.0 0.00 0.03 0.00 93 1017.3
20260906094511 11 120 0.0 0.0 0.00 0.05 0.00 93 1017.3
20260906093010 11 120 0.0 1.6 0.00 0.05 0.00 94 1017.3
20260906091506 11 135 0.0 1.6 0.00 0.05 0.00 94 1017.3
20260906090003 11 137 0.0 0.0 0.00 0.05 0.00 93 1017.3
20260906084602 11 138 0.0 1.6 0.00 0.05 0.00 93 1017.5
20260906083100 11 130 0.0 0.0 0.00 0.05 0.00 93 1017.6
20260906081552 11 130 0.0 1.6 0.00 0.05 0.00 92 1017.6
20260906080052 11 132 0.0 1.6 0.00 0.05 0.00 91 1017.7
20260906074548 12 104 0.0 1.6 0.00 0.05 0.00 91 1017.7
20260906073044 12 115 0.0 1.6 0.00 0.05 0.00 91 1017.5
20260906071542 12 113 0.0 1.6 0.00 0.05 0.00 92 1017.5
20260906070039 12 113 0.0 0.0 0.00 0.05 0.00 92 1017.6
20260906064539 12 113 0.0 0.0 0.00 0.05 0.05 91 1017.6
20260906063034 12 113 0.0 1.6 0.00 0.05 0.05 91 1017.5
20260906061533 12 114 0.0 0.0 0.00 0.05 0.05 91 1017.5
20260906060031 12 108 0.0 1.6 0.00 0.05 0.05 91 1017.5
20260906054536 12 224 0.0 0.0 0.00 0.05 0.05 90 1017.5
20260906053027 13 224 0.0 0.0 0.00 0.05 0.05 91 1017.3
20260906051526 13 224 0.0 0.0 0.00 0.05 0.05 91 1017.3
20260906050024 13 224 0.0 0.0 0.00 0.05 0.05 91 1017.3
20260906044522 13 224 0.0 0.0 0.00 0.05 0.05 90 1017.1
20260906043024 13 224 0.0 0.0 0.00 0.05 0.05 90 1017.0
20260906041518 14 225 0.0 1.6 0.00 0.05 0.05 90 1017.0
20260906040019 14 224 0.0 0.0 0.00 0.05 0.05 90 1017.1
20260906034516 14 225 0.0 0.0 0.00 0.05 0.05 89 1017.0
20260906033013 15 225 0.0 0.0 0.00 0.05 0.05 89 1016.8
20260906031512 15 224 0.0 0.0 0.00 0.05 0.05 87 1016.5
20260906030008 15 224 0.0 0.0 0.00 0.05 0.05 85 1016.3
20260906024508 16 224 0.0 0.0 0.00 0.05 0.05 82 1016.3
20260906023006 16 224 0.0 3.2 0.00 0.05 0.05 81 1016.4
20260906021506 17 241 0.0 3.2 0.00 0.05 0.05 77 1016.2
20260906020001 17 233 0.0 1.6 0.00 0.05 0.05 77 1016.0
20260906014607 17 233 0.0 3.2 0.00 0.05 0.05 75 1015.8
20260906013059 18 242 1.6 6.4 0.00 0.05 0.05 74 1015.5
20260906011605 18 232 3.2 11.3 0.00 0.05 0.05 72 1015.3
20260906010054 19 220 1.6 8.0 0.00 0.05 0.05 68 1015.2
20260906004552 20 208 0.0 9.7 0.00 0.05 0.05 69 1015.2
20260906003050 20 223 3.2 14.5 0.00 0.05 0.05 69 1015.1
20260906001549 20 248 3.2 9.7 0.00 0.05 0.05 66 1015.0
20260906000046 20 241 3.2 8.0 0.00 0.05 0.05 67 1015.1
20260905234545 20 229 3.2 9.7 0.00 0.05 0.05 66 1015.0
20260905233044 19 81 0.0 8.0 0.00 0.05 0.05 68 1015.2